PROBA-1 1 26958U 01049B 26073.27230887 .00002182 00000+0 14480-3 0 9991 2 26958 97.9643 78.5067 0057201 83.9035 276.8705 15.07059527329321 CUTE-1 (CO-55) 1 27844U 03031E 26072.98964531 .00000396 00000+0 19032-3 0 9999 2 27844 98.6777 82.7351 0010745 101.3524 258.8862 14.24270180178127 CUBESAT XI-IV (CO-57) 1 27848U 03031J 26073.28205840 .00000333 00000+0 16531-3 0 9990 2 27848 98.6808 82.8126 0010519 116.7646 243.4610 14.23564889177874 APRIZESAT 4 1 35684U 09041D 26073.17327769 .00000971 00000+0 12270-3 0 9991 2 35684 98.1478 146.5880 0042068 269.6936 89.9457 14.83718681897270 APRIZESAT 3 1 35686U 09041F 26073.32659438 .00001677 00000+0 14997-3 0 9993 2 35686 98.1899 222.1005 0062384 21.1648 339.2132 14.95917514902191 PROBA-2 1 36037U 09059B 26073.25955845 .00000328 00000+0 86916-4 0 9999 2 36037 98.2435 257.9290 0012588 209.3024 150.7468 14.54794973867724 APRIZESAT 5 1 37792U 11044E 26072.74218033 .00001665 00000+0 21832-3 0 9999 2 37792 98.2402 3.1229 0051428 311.2139 48.4645 14.80872554784668 APRIZESAT 6 1 37793U 11044F 26073.30489137 .00001077 00000+0 15920-3 0 9996 2 37793 98.2414 341.8535 0044004 31.0397 92.5881 14.76763672783148 PROBA-V 1 39159U 13021A 26072.39062188 .00000124 00000+0 72448-4 0 9993 2 39159 98.3510 55.7661 0005218 61.3593 298.8111 14.23574881667482 APRIZESAT 7 1 39416U 13066A 26072.81820590 .00002001 00000+0 20416-3 0 9997 2 39416 97.7601 27.4856 0036317 165.1502 195.0792 14.91299135667014 APRIZESAT 8 1 39425U 13066K 26073.29631213 .00001398 00000+0 15792-3 0 9991 2 39425 97.8123 22.1588 0044763 237.2839 122.4058 14.87439030665568 BUGSAT-1 (TITA) 1 40014U 14033E 26073.26317267 .00006553 00000+0 35548-3 0 9998 2 40014 98.0420 160.3469 0029550 143.3936 216.9321 15.14563477641461 SAUDISAT 4 1 40016U 14033G 26073.29738098 .00000892 00000+0 12449-3 0 9997 2 40016 97.7421 222.7974 0045397 23.9273 336.4035 14.79399572632045 APRIZESAT 9 1 40018U 14033J 26073.31635620 .00001123 00000+0 17207-3 0 9994 2 40018 97.8888 208.9245 0067122 144.4597 216.1110 14.74085818629583 APRIZESAT 10 1 40019U 14033K 26073.29331191 .00000963 00000+0 15881-3 0 9995 2 40019 97.9485 202.4601 0078224 216.0427 143.5491 14.70761983628300 TECHDEMOSAT-1 (TDS-1) 1 40076U 14037H 26072.96024729 .00011837 00000+0 69926-3 0 9992 2 40076 98.3778 55.8816 0005165 218.1930 141.8932 15.11674779633834 TECHNOSAT 1 42829U 17042E 26072.95141656 .00003724 00000+0 27042-3 0 9996 2 42829 97.4145 234.3364 0019131 61.8226 298.4930 15.04320940472389 FLYING LAPTOP 1 42831U 17042G 26073.31260370 .00003341 00000+0 26829-3 0 9992 2 42831 97.4282 232.7802 0019630 80.9243 279.4202 15.00551414472220 HAWK-A 1 43765U 18099H 26073.14322651 .00008560 00000+0 35785-3 0 9993 2 43765 97.4049 126.6497 0034261 259.1226 100.6155 15.23308463398629 HAWK-B 1 43794U 18099AN 26073.12014154 .00007449 00000+0 32881-3 0 9998 2 43794 97.4097 126.2332 0031225 277.2015 82.5672 15.21604461398573 HAWK-C 1 43799U 18099AT 26073.13025289 .00009805 00000+0 36962-3 0 9997 2 43799 97.4025 127.1000 0040376 261.0881 98.5786 15.26497755399407 SALSAT 1 46495U 20068K 26073.25641504 .00011137 00000+0 40659-3 0 9998 2 46495 97.8859 70.6524 0008077 277.0692 82.9628 15.28285287300854 HAWK-2C 1 47502U 21006CT 26073.11364755 .00007796 00000+0 24401-3 0 9999 2 47502 97.2415 119.3443 0007403 169.3871 190.7530 15.33358567284928 HAWK-2A 1 47505U 21006CW 26073.11710490 .00007893 00000+0 24691-3 0 9992 2 47505 97.2456 119.9692 0006960 171.8934 188.2422 15.33377302284923 HAWK-2B 1 47508U 21006CZ 26073.11394352 .00008201 00000+0 25641-3 0 9990 2 47508 97.2333 118.4573 0007618 170.1491 189.9902 15.33375227284928 HAWK-3B 1 48931U 21059BE 26073.03503008 .00042099 00000+0 48317-3 0 9998 2 48931 97.6723 261.2784 0004973 320.7593 39.3303 15.61948176262967 HAWK-3C 1 48948U 21059BX 26073.29103127 .00045153 00000+0 51733-3 0 9992 2 48948 97.6871 267.0648 0005363 321.2760 38.8112 15.61975578263002 HAWK-3A 1 48957U 21059CG 26073.03461727 .00042437 00000+0 48697-3 0 9994 2 48957 97.6806 264.0709 0005064 320.6807 39.4081 15.61949770262969 HAWK-5C 1 52754U 22057Y 26073.31483055 .00026018 00000+0 50254-3 0 9991 2 52754 97.6453 227.2081 0005420 60.6674 299.5116 15.47767413211654 HAWK-5B 1 52756U 22057AA 26073.31470080 .00025842 00000+0 49920-3 0 9999 2 52756 97.6457 225.5481 0005235 55.0314 305.1426 15.47765663211651 HAWK-5A 1 52757U 22057AB 26073.31442593 .00025701 00000+0 49646-3 0 9997 2 52757 97.6458 226.3823 0005694 57.2847 302.8950 15.47765621211656 HAWK-6B 1 55324U 23011A 26073.00395350 .00006456 00000+0 28527-3 0 9996 2 55324 40.5093 186.8587 0001553 74.0859 286.0121 15.21971079173331 HAWK-6C 1 55326U 23011C 26073.00337359 .00007671 00000+0 33725-3 0 9999 2 55326 40.4868 183.7217 0002071 52.0057 308.0939 15.21975333173340 HAWK-6A 1 55327U 23011D 26073.00337391 .00006620 00000+0 29229-3 0 9993 2 55327 40.4977 185.3330 0001550 44.6307 315.4626 15.21971445173347 HAWK-7A 1 56191U 23054P 26073.27848876 .00007460 00000+0 29037-3 0 9994 2 56191 97.2831 323.0305 0003942 40.1751 319.9779 15.26278129162542 HAWK-7B 1 56193U 23054R 26073.21285603 .00007732 00000+0 30087-3 0 9992 2 56193 97.2860 321.1948 0003458 52.7393 307.4161 15.26276845162530 HAWK-7C 1 56200U 23054Y 26073.21273692 .00007500 00000+0 29191-3 0 9993 2 56200 97.2833 321.9943 0003330 43.3596 316.7904 15.26276457162539